This demonstration page uses our WeatherBlox Daily Observations layout. Learn more.

Left ArrowRight Arrow

Hourly Observations for May 25, 2016

Temp ( °F °C ) Dew Point ( °F °C ) Humidity (%) Winds ( mph kmh ) Pressure ( in mb ) Visibility ( mi km ) Precip ( " mm )
12:51 am 00:51 Clear 68 20 22 -5.6 17 17 W 9 15 29.83 1010 10 16 0.00 0.00
1:51 am 01:51 Clear 64 17.8 22 -5.6 20 20 NW 9 15 29.83 1010 10 16 0.00 0.00
2:51 am 02:51 Clear 66 18.9 23 -5 19 19 NNW 6 9 29.84 1010 10 16 0.00 0.00
3:51 am 03:51 Clear 58 14.4 23 -5 26 26 ESE 5 7 29.85 1011 10 16 0.00 0.00
4:51 am 04:51 Clear 57 13.9 22 -5.6 26 26 SE 6 9 29.87 1011 10 16 0.00 0.00
5:51 am 05:51 Sunny 56 13.3 22 -5.6 27 27 ESE 3 6 29.89 1012 10 16 0.00 0.00
6:51 am 06:51 Sunny 63 17.2 24 -4.4 23 23 ESE 6 9 29.89 1012 10 16 0.00 0.00
7:51 am 07:51 Sunny 73 22.8 25 -3.9 17 17 ESE 8 13 29.88 1012 10 16 0.00 0.00
8:51 am 08:51 Sunny 76 24.4 27 -2.8 16 16 ESE 10 17 29.88 1012 10 16 0.00 0.00
9:51 am 09:51 Sunny 79 26.1 28 -2.2 15 15 VRB 3 6 29.87 1011 10 16 0.00 0.00
10:51 am 10:51 Sunny 82 27.8 22 -5.6 11 11 undefined N/A 29.85 1011 10 16 0.00 0.00
11:51 am 11:51 Sunny 85 29.4 22 -5.6 10 10 VRB 3 6 29.83 1010 10 16 0.00 0.00
12:51 pm 12:51 Sunny 87 30.6 22 -5.6 9 9 W 8 13 29.80 1009 10 16 0.00 0.00
1:51 pm 13:51 Sunny 87 30.6 18 -7.8 8 8 S 9 15 29.79 1009 10 16 0.00 0.00
2:51 pm 14:51 Sunny 90 32.2 17 -8.3 7 7 WNW 10 17 29.75 1007 10 16 0.00 0.00
3:51 pm 15:51 Sunny 89 31.7 18 -7.8 7 7 W 14 22 29.74 1007 10 16 0.00 0.00
4:51 pm 16:51 Sunny 88 31.1 17 -8.3 7 7 SW 9 15 29.73 1007 10 16 0.00 0.00
5:51 pm 17:51 Sunny 87 30.6 16 -8.9 7 7 W 15 24 29.73 1007 10 16 0.00 0.00
6:51 pm 18:51 Sunny 83 28.3 17 -8.3 8 8 W 18 30 29.73 1007 10 16 0.00 0.00
7:51 pm 19:51 Clear 79 26.1 18 -7.8 10 10 W 14 22 29.73 1007 10 16 0.00 0.00
8:51 pm 20:51 Clear 74 23.3 17 -8.3 11 11 WNW 9 15 29.77 1008 10 16 0.00 0.00
9:51 pm 21:51 Clear 72 22.2 18 -7.8 13 13 NW 15 24 29.79 1009 10 16 0.00 0.00
10:51 pm 22:51 Clear 71 21.7 18 -7.8 13 13 NW 16 26 29.78 1009 10 16 0.00 0.00
11:51 pm 23:51 Clear 69 20.6 18 -7.8 14 14 NW 16 26 29.78 1009 10 16 0.00 0.00

Powered by AerisWeather